Siga o Apolo11 no Facebook   Siga o Apolo11 no Twiiter
Ciência, Espaço e Tecnologia




Elementos Keplerianos formato Two Line

Para que um programa de rastreio possa saber a localização exata de qualquer satélite no espaço e assim poder rastreá-lo corretamente, é necessário que ele seja carregado com algumas informações.

Estas informações são chamadas de Elementos Orbitais ou Elementos Keplerianos e consistem em 2 linhas com dezenas de números. Esses números nada mais são que os parâmetros orbitais do satélite, tais como altitude, atitude, excentricidade da órbita, número de órbitas por dia, etc.

Com base nestas informações o programa é capaz de determinar com bastante exatidão a posição de qualquer satélite no espaço e nos informar em qual horário este estará dentro do alcance de nossa estação. Para que isso seja feito com precisão é necessário que os dados estejam sempre bem atualizadas.

Devido aos parâmetros orbitais serem descritos em 2 linhas, estes formato é também conhecido internacionalmente por 2line (leia-se Two Line”).

Para atualizar seu programa de rastreio basta copiar os dados disponibilizados e fornece-los ao programa. Nossos elementos orbitais são atualizados diariamente.

NOAATodos os satélites ambientais da série NOAA
30 DiasSatélites lançados nos últimos 30 dias
ISSSatélites e foguetes relacionados à Estação Espacial Internacional
HAMSatélites construídos por radiomadores
CUBESatélites tipo cubo, com 10 centímetros de lado
METEOSatélites voltados à previsão do tempo
EDUSatélites construídos e operados por universidades
VIS100 satélites mais brilhantes que podem ser vistos a olho nú



Satélites série NOAA
NOAA 1 [-]              
1 04793U 70106A   22143.42103218 -.00000033  00000+0  68110-4 0  9996
2 04793 101.5572 207.8580 0031474  12.0700 359.2766 12.54005156354453
NOAA 2 (ITOS-D) [-]     
1 06235U 72082A   22143.56633856 -.00000011  00000+0  21845-3 0  9994
2 06235 101.9512 125.6459 0004445 118.4437 355.4314 12.53146872268857
NOAA 3 [-]              
1 06920U 73086A   22143.55435419 -.00000030  00000+0  11899-3 0  9993
2 06920 102.2052 125.0143 0006407 341.0325 128.0394 12.40348059197709
NOAA 4 [-]              
1 07529U 74089A   22143.54689844 -.00000020  00000+0  16569-3 0  9993
2 07529 101.9113 123.1119 0009169 148.9442 329.5576 12.53157496173423
NOAA 5 [-]              
1 09057U 76077A   22143.51427927 -.00000051  00000+0 -49434-4 0  9992
2 09057 102.0972 111.7698 0009680 182.4496 288.3188 12.37770265 70650
TIROS N [-]             
1 11060U 78096A   22143.44549737  .00000188  00000+0  11207-3 0  9993
2 11060  98.6370 197.8499 0010090 209.8557 150.2045 14.18383581468069
NOAA 6 [-]              
1 11416U 79057A   22142.93057704  .00000391  00000+0  15688-3 0  9990
2 11416  98.6644 153.7455 0009827 340.8857  19.1957 14.33750356237868
NOAA 7 [-]              
1 12553U 81059A   22143.38134397  .00000057  00000+0  50651-4 0  9991
2 12553  99.0009 187.4839 0011495 182.0747 178.0381 14.17329308114242
NOAA 8 [-]              
1 13923U 83022A   22143.49643178  .00000196  00000+0  95274-4 0  9993
2 13923  98.6857 134.1387 0013986 283.8823  76.0803 14.28803871 38840
NOAA 9 [-]              
1 15427U 84123A   22143.52070836  .00000164  00000+0  10618-3 0  9999
2 15427  99.0435 115.5159 0013948 234.3135 233.2135 14.16197521933083
NOAA 10 [-]             
1 16969U 86073A   22142.40243291  .00000187  00000+0  92220-4 0  9995
2 16969  98.5664 129.0388 0012910  33.6629  89.1707 14.28195775857117
NOAA 11 [-]             
1 19531U 88089A   22143.52823382  .00000072  00000+0  58054-4 0  9991
2 19531  98.4230 133.9812 0010057 248.9260 111.0839 14.15307774737298
NOAA 12 [-]             
1 21263U 91032A   22143.51305827  .00000130  00000+0  72045-4 0  9997
2 21263  98.5136 144.0361 0014669  55.5413 304.7152 14.25990066613178
NOAA 13 [-]             
1 22739U 93050A   22143.51811898  .00000168  00000+0  11258-3 0  9997
2 22739  98.5030 124.5640 0010548  58.3292 301.8908 14.12839246483531
NOAA 14 [-]             
1 23455U 94089A   22143.50884134  .00000065  00000+0  55642-4 0  9990
2 23455  98.4494 171.5564 0010246  42.1454 318.0506 14.14195250413183
NOAA 15 [B]             
1 25338U 98030A   22143.51328106  .00000260  00000+0  12712-3 0  9992
2 25338  98.6456 173.3729 0010588  17.3724 342.7816 14.26128236249460
NOAA 16 [-]             
1 26536U 00055A   22143.40669074  .00000082  00000+0  66527-4 0  9999
2 26536  98.6378 203.1700 0009609 233.0369 126.9925 14.13325402413814
NOAA 17 [-]             
1 27453U 02032A   22143.50842221  .00000163  00000+0  88085-4 0  9996
2 27453  98.6704  89.0613 0011668 350.3997   9.6958 14.25118085 35305
NOAA 18 [B]             
1 28654U 05018A   22143.41787606  .00000220  00000+0  14252-3 0  9990
2 28654  98.9497 213.8727 0014931  46.3048 313.9358 14.12732134876445
NOAA 19 [+]             
1 33591U 09005A   22143.55790743  .00000198  00000+0  13208-3 0  9991
2 33591  99.1496 177.1695 0012908 256.7134 103.2598 14.12567081684679
SUOMI NPP [+]           
1 37849U 11061A   22143.53968302  .00000122  00000+0  78626-4 0  9995
2 37849  98.7317  82.4382 0001382  80.1919  30.1044 14.19566471547661
NOAA 20 [+]             
1 43013U 17073A   22143.55401244  .00000100  00000+0  67993-4 0  9994
2 43013  98.7156  82.4987 0001466  99.3533 260.7808 14.19553347233692


IMAGENS DE SATÉLITES !    Clique e conheça nosso Vídeo Workshop de sensoriamento remoto e imagens meteorológicas.
Apolo11.com - Todos os direitos reservados - 2001 - 2022
Política de Privacidade

"Política é a guerra sem sangue enquanto a guerra é a política com sangue" - Mao Tsé-Tung